Flight Track Log - Related Links

Times and Time Zones

All times are in EDT time to prevent confusion due to time zone crossing. See the N319EE flight status page for this flight to view local times or setup timezone preferences in your user account.

Time Position Orientation Groundspeed Altitude Reporting Facility
EDT Latitude Longitude Course Direction KTS MPH feet Rate Location/Type
Wed 12:28:23 PM 42.2281 -76.0636 305° West 160 184 4,700  Level New York Center
Wed 12:29:23 PM 42.2511 -76.1075 305° West 155 178 6,700 1,700 Climbing New York Center
Wed 12:30:23 PM 42.2803 -76.1547 310° West 160 184 8,100 1,500 Climbing New York Center
Wed 12:31:23 PM 42.3092 -76.2019 310° West 160 184 9,700 950 Climbing New York Center
Wed 12:32:23 PM 42.3442 -76.2581 310° West 174 200 10,000 150 Climbing New York Center
Wed 12:33:23 PM 42.3806 -76.3231 307° West 201 231 10,000  Level New York Center
Wed 12:34:23 PM 42.4192 -76.3881 309° West 213 245 10,000  Level New York Center
Wed 12:35:23 PM 42.4578 -76.4503 310° West 218 251 10,000  Level New York Center
Wed 12:36:23 PM 42.4967 -76.5128 310° West 218 251 10,000  Level New York Center
Wed 12:37:23 PM 42.5350 -76.5781 309° West 218 251 10,000  Level New York Center
Wed 12:38:55 PM 42.5958 -76.6789 309° West 218 251 10,000  Level Cleveland Center
Wed 12:39:57 PM 42.6347 -76.7431 309° West 220 253 10,000  Level Cleveland Center
Wed 12:40:59 PM 42.6847 -76.7942 323° Northwest 224 258 10,000 71 Level Cleveland Center
Wed 12:41:21 PM 42.7106 -76.8150 329° Northwest 228 262 10,100 -95 Climbing Cleveland Center
Wed 12:42:02 PM 42.7211 -76.8572 289° West 239 275 9,900 -700 Descending Cleveland Center
Wed 12:42:21 PM 42.7339 -76.8928 296° West 226 260 9,400 -1,161 Descending Cleveland Center
Wed 12:43:04 PM 42.7586 -76.9475 302° West 230 265 8,700 -985 Descending Cleveland Center
Wed 12:43:28 PM 42.7758 -76.9753 310° West 243 280 8,300 -968 Descending Cleveland Center
Wed 12:44:06 PM 42.7992 -77.0186 306° West 234 269 7,700 -1,082 Descending Cleveland Center
Wed 12:44:29 PM 42.8189 -77.0464 314° West 236 272 7,200 -968 Descending Cleveland Center
Wed 12:45:08 PM 42.8392 -77.0869 304° West 235 270 6,700 -900 Descending Cleveland Center
Wed 12:45:29 PM 42.8564 -77.1136 311° West 224 258 6,300 -1,258 Descending Cleveland Center
Wed 12:46:10 PM 42.8778 -77.1503 309° West 228 262 5,400 -1,672 Descending Cleveland Center
Wed 12:46:30 PM 42.8944 -77.1753 312° West 211 243 4,600 -1,452 Descending Cleveland Center
Wed 12:47:12 PM 42.9136 -77.2100 307° West 217 250 3,900 -590 Descending Cleveland Center
Wed 12:47:31 PM 42.9289 -77.2331 312° West 190 219 4,000 97 Climbing Cleveland Center
Wed 12:48:14 PM 42.9467 -77.2656 307° West 204 235 4,000 91 Level Cleveland Center
Wed 12:48:37 PM 42.9664 -77.2978 310° West 207 238 4,100  Climbing Cleveland Center
Wed 12:49:16 PM 42.9892 -77.3392 307° West 202 232 4,000 -109 Descending Cleveland Center
Wed 12:49:32 PM 43.0008 -77.3558 314° West 214 246 4,000 -677 Level Cleveland Center
Wed 12:50:18 PM 43.0264 -77.4011 308° West 207 238 3,300 -1,100 Descending Cleveland Center
Wed 12:50:32 PM 43.0367 -77.4172 311° West 209 241 2,900 -774 Descending Cleveland Center
Wed 12:51:20 PM 43.0622 -77.4614 308° West 208 239 2,500 -492 Descending Cleveland Center
Wed 12:51:33 PM 43.0731 -77.4758 316° Northwest 200 230 2,400 -484 Descending Cleveland Center
Wed 12:52:22 PM 43.0950 -77.5194 305° West 202 232 2,000 -393 Descending Cleveland Center
Wed 12:52:34 PM 43.1069 -77.5369 313° West 190 219 2,000 -194 Level Cleveland Center
Wed 12:53:24 PM 43.1269 -77.5736 307° West 194 223 1,800 -364 Descending Cleveland Center
Wed 12:53:40 PM 43.1392 -77.5944 309° West 148 170 1,600 -677 Descending Cleveland Center
Wed 12:54:26 PM 43.1297 -77.6300 250° West 159 183 1,100 -689 Descending Cleveland Center
Wed 12:54:41 PM 43.1261 -77.6403 244° Southwest 128 147 900 -387 Descending Cleveland Center
Wed 12:55:28 PM 43.1172 -77.6664 245° Southwest 144 166 700 -255 Descending Cleveland Center
Wed 12:57:00 PM 43.1167 -77.6667 316° Northwest  Level FlightAware Approximate

Login

Don't have an account? Register now (free) for customized features, flight alerts, and more!